Location: Flatbush
(40.6520°N, 73.9590°W)
Time: 04:19:07
(UTC+00:00)

Daily predictions for brighter satellites

Satellite Brightness Start Highest point End
(mag) Time Altitude Azimuth Time Altitude Azimuth Time Altitude Azimuth
OAO 2 Rocket 4.0 00:03:30 10° WSW 00:07:50 38° S 00:07:50 38° S
SeaSat 1 2.6 00:11:24 58° NNE 00:11:24 58° NNE 00:15:40 10° NNW
Cosmos 2219 3.8 00:07:32 10° NNW 00:13:10 57° WSW 00:17:55 15° S
YAOGAN 1 3.9 00:11:01 10° SSW 00:15:03 39° W 00:19:07 10° NNW
Cosmos 883 Rocket 4.3 00:12:32 10° S 00:18:43 81° E 00:24:51 10° N
S3M 4.4 00:15:20 10° SSW 00:21:20 59° W 00:27:24 10° N
Cosmos 2082 3.7 00:17:31 10° NNW 00:22:41 68° NNE 00:22:41 68° NNE
CZ-2C R/B 4.4 00:18:59 10° S 00:24:30 44° W 00:29:58 10° NNW
SL-4 R/B 4.5 00:23:16 10° NNW 00:24:00 13° NNW 00:24:00 13° NNW
Cosmos 968 Rocket 4.0 00:21:55 10° NNW 00:27:02 57° WSW 00:28:17 44° SSW
Cosmos 1346 Rocket 4.4 00:25:43 10° NNW 00:28:23 33° NW 00:28:23 33° NW
Cosmos 2369 3.8 00:26:08 10° SSW 00:31:50 74° WNW 00:32:24 68° NNW
Atlas Centaur 2 3.7 00:27:09 10° WSW 00:34:53 39° S 00:35:21 39° SSE
ARGOS 3.5 00:36:35 57° SW 00:37:14 62° W 00:42:38 10° NNW
NOSS 3-3 (A) 4.3 00:34:57 10° SW 00:40:36 59° NW 00:41:51 50° N
NOSS 3-3 (C) 4.3 00:35:01 10° SW 00:40:44 60° NW 00:41:57 50° N
USA 215 3.9 00:42:31 42° NNE 00:42:31 42° NNE 00:47:56 10° NW
Cosmos 2227 Rocket 3.5 00:44:16 10° NW 00:49:25 36° WSW 00:51:13 29° SW
ATLAS 2AS CENTAUR R/B 3.9 00:49:20 10° NNW 00:54:14 33° N 00:54:14 33° N
Cosmos 2263 Rocket 4.3 00:53:27 10° N 00:54:45 17° N 00:54:45 17° N
Cosmos 1697 Rocket 4.1 01:00:13 10° WSW 01:05:18 34° WNW 01:06:00 33° NW
H-2A R/B 4.2 01:04:01 10° SSW 01:08:18 24° W 01:12:39 10° NW
H-2A R/B (2) 4.2 00:30:42 10° WSW 01:08:30 44° SSW 01:09:35 43° S
CZ-4C R/B 4.5 01:22:24 10° NNW 01:25:16 23° N 01:25:16 23° N
ADEOS Rocket 4.2 08:08:52 10° SE 08:13:42 33° ENE 08:18:36 10° N
DELTA 2 R/B (1) 4.1 08:44:03 51° SE 08:44:03 51° SE 08:48:24 10° ESE
NOSS 3-2 (C) 3.5 08:44:11 62° N 08:44:11 62° N 08:49:34 10° NNE
ISS -0.7 08:46:05 16° ENE 08:46:05 16° ENE 08:46:55 10° ENE
Lacrosse 4 Rocket 3.0 08:57:05 27° NNE 08:57:05 27° NNE 08:59:01 10° NNE
ALOS 4.1 08:51:29 10° NE 08:55:35 30° E 08:59:41 10° SSE
CENTAUR R/B 2.4 08:57:17 64° NW 08:57:17 64° NW 09:04:00 10° NNE
CZ-2C R/B 2.3 09:00:46 10° NNE 09:05:24 76° N 09:05:24 76° N
Cosmos 1626 4.0 09:03:25 10° SSE 09:06:42 31° E 09:09:59 10° NNE
ADEOS 4.3 09:07:26 10° NNE 09:12:33 51° E 09:17:36 10° S
Cosmos 1833 Rocket 2.9 09:08:56 22° S 09:12:34 71° ESE 09:18:13 10° NNE
PAYLOAD A 4.0 09:07:56 10° N 09:12:41 63° NW 09:12:41 63° NW
In-Cosmos 22 4.2 09:14:21 53° NW 09:14:21 53° NW 09:18:55 10° N
Nadezhda 4 Rocket 4.2 09:08:39 10° S 09:14:41 68° E 09:20:47 10° NNE
Cosmos 2180 Rocket 4.3 09:09:07 10° N 09:15:24 84° W 09:21:34 10° S
Cosmos 1269 Rocket 4.0 09:17:07 60° WNW 09:17:07 60° WNW 09:22:21 10° NNE
Cosmos 1302 Rocket 4.0 09:13:14 17° NNW 09:17:27 82° ENE 09:22:43 10° SSE
Geosat 4.2 09:16:46 10° SE 09:21:45 71° ENE 09:26:27 12° NNW
Lacrosse 5 rocket 1.3 09:22:55 62° NE 09:22:55 62° NE 09:26:06 10° NE
H-2A R/B 4.2 09:19:57 10° S 09:20:50 15° S 09:20:50 15° S
Cosmos 2344 4.1 09:27:00 33° WNW 09:28:42 36° NW 09:36:04 10° NNE
Meteor 1-31 Rocket 3.9 09:25:13 10° NNE 09:29:01 46° E 09:32:48 10° S
USA 238 DEB 4.4 09:29:27 31° NW 09:30:19 32° NW 09:36:24 10° NNE
USA 238 4.4 09:29:31 31° NW 09:30:24 32° NW 09:36:30 10° NNE
Cosmos 2082 Rocket 2.8 09:26:10 10° S 09:31:37 56° ESE 09:37:06 10° NNE
Meteor 1-16 Rocket 4.1 09:28:03 10° NNW 09:33:12 53° W 09:38:22 10° S
SJ-6F 4.2 09:32:12 10° N 09:36:18 73° WNW 09:39:20 18° SSW
CZ-4B R/B 1.5 09:35:22 10° SSE 09:38:48 76° ENE 09:42:16 10° N
Cosmos 1656 3.7 09:36:09 18° NW 09:40:16 59° WSW 09:45:50 10° S
CZ-4B R/B 4.2 09:38:06 10° NNE 09:42:19 69° E 09:46:18 10° S
ATLAS 3B R/B 2.6 09:36:50 10° SSW 09:43:24 85° ESE 09:50:04 10° NE
Meteor 2-5 Rocket 3.7 09:38:15 10° S 09:43:55 88° E 09:49:44 10° N
deb Chang Zheng 4 3.4 09:40:39 10° NNE 09:44:55 88° ESE 09:49:11 10° SSW
COSMOS 2406 3.5 09:48:10 26° WSW 09:50:54 44° WNW 09:56:20 10° NNE
Cosmos 1892 Rocket 4.0 09:49:31 10° S 09:53:47 62° E 09:58:07 10° NNE
Cosmos 2084 4.4 09:51:20 10° SSW 09:55:27 48° ESE 09:59:41 10° NE
Cosmos 1400 Rocket 3.7 09:52:34 10° N 09:56:26 50° ENE 10:00:12 10° SSE
Cosmos 1992 Rocket 4.2 09:52:54 10° NNW 09:58:07 75° ENE 10:03:19 10° SSE
Cosmos 1697 Rocket 2.6 09:53:19 10° NNW 09:58:59 77° WSW 10:04:38 10° SSE
ADEOS Rocket 3.4 09:54:27 10° SSW 09:59:15 30° W 10:04:05 10° NW
ARGOS Delta rocket 4.2 09:56:55 10° N 10:02:21 89° E 10:07:51 10° SSW
ERS-2 2.7 10:00:35 10° SSW 10:03:55 34° W 10:05:48 20° NW
BREEZE-M DEB (TANK) 2.1 10:04:38 32° WSW 10:05:11 37° SW 10:07:14 10° SE
Cosmos 44 Rocket 3.9 10:04:23 18° NW 10:07:42 40° WSW 10:12:30 10° S
SKYMED 2 3.7 10:03:42 10° SSE 10:08:02 77° ENE 10:12:23 10° N
Cosmos 1908 4.4 10:08:35 23° WSW 10:08:35 23° WSW 10:11:11 10° SW
SL-19 R/B 3.5 10:06:14 10° N 10:09:00 54° WNW 10:11:49 10° SSW
SAR-Lupe-4 3.5 10:05:40 10° S 10:09:12 63° WSW 10:12:46 10° NNW
SJ-12 3.8 10:07:05 10° N 10:11:13 83° WNW 10:15:18 10° SSW
FENGYUN 3A 3.8 10:06:47 10° N 10:12:00 49° WNW 10:17:12 10° SW
Cosmos 2026 Rocket 4.1 10:05:45 10° S 10:12:06 88° E 10:18:31 10° N
Abrixas rocket 3.5 10:11:30 16° NNW 10:13:03 26° NNE 10:15:31 10° ENE
Cosmos 1461 3.4 10:10:10 14° SW 10:13:53 47° NW 10:18:26 10° NNE
TELKOM 3 4.2 10:12:57 25° W 10:14:31 48° NNW 10:18:18 10° NE
Cosmos 2195 Rocket 4.4 10:10:30 10° SSW 10:16:42 73° W 10:22:53 10° N
Cosmos 1689 Rocket 1.9 10:14:30 10° S 10:17:25 82° WSW 10:20:22 10° NNW
SL-14 R/B 3.7 10:13:46 10° SSW 10:17:29 38° WNW 10:21:15 10° N
Cosmos 2251 Rocket 3.5 10:12:17 10° SSW 10:17:36 64° WNW 10:22:56 10° NNE
ISS -2.7 10:19:03 20° WNW 10:20:37 30° NNW 10:23:39 10° NE
Cosmos 1980 Rocket 2.2 10:15:19 10° NNW 10:20:56 85° ENE 10:26:33 10° SSE
USA 290 2.6 10:19:44 10° SW 10:22:47 41° WNW 10:25:53 10° N
Cosmos 614 Rocket 4.1 10:21:31 10° SSW 10:26:40 78° ESE 10:31:48 10° NNE
SAR-Lupe-1 4.5 10:23:30 10° S 10:26:51 39° W 10:30:15 10° NNW
Cosmos 1300 3.0 10:24:22 10° NNW 10:28:00 43° W 10:31:37 10° SSW
PSLV R/B 4.0 10:27:40 10° S 10:31:49 65° W 10:36:01 10° NNW
Cosmos 2360 4.4 10:26:58 10° NNW 10:32:29 52° WSW 10:37:56 10° S
ALOS 3.2 10:28:59 10° NNW 10:32:53 27° WNW 10:36:47 10° SW
Lacrosse 4 Rocket 3.4 10:33:26 10° NW 10:34:12 11° NW 10:35:05 10° NNW
Cosmos 1726 Rocket 4.0 10:33:04 10° NNW 10:37:15 40° W 10:41:24 10° SSW
Cosmos 1484 Rocket 4.2 10:36:24 10° NNW 10:38:59 17° WNW 10:41:33 10° WSW
Cosmos 1626 3.7 10:39:49 10° WSW 10:42:01 15° WNW 10:44:14 10° NW
CZ-2C R/B 4.3 10:42:28 10° NW 10:43:06 10° WNW 10:43:44 10° WNW
Cosmos 2278 3.8 10:42:12 10° NNW 10:47:43 55° WSW 10:53:12 10° S
Aureole 3 4.0 10:43:44 10° NNW 10:47:48 49° W 10:52:55 10° SSW
H-2A R/B 2.7 10:44:32 10° N 10:48:21 79° WNW 10:52:11 10° SSW
Cosmos 2228 4.2 10:45:45 10° NW 10:49:05 22° W 10:52:26 10° SW
CZ-4B R/B 3.5 10:45:28 10° N 10:49:08 35° WNW 10:52:57 10° SW
CENTAUR R/B 4.2 10:45:01 10° WNW 10:49:24 19° NNW 10:54:16 10° NNE
Cosmos 2098 Rocket 3.9 10:43:08 10° S 10:49:37 84° E 10:54:49 10° N
Cosmos 2322 Rocket 3.8 10:46:24 10° N 10:51:38 36° ENE 10:56:48 10° SE
COSMO-SKYMED 1 3.4 10:52:21 10° SSW 10:56:11 30° W 11:00:02 10° NW
CZ-3 R/B 3.3 10:48:54 10° WSW 11:04:44 37° SSW 11:10:08 10° SE
